Location: Unspecified
(0.0000°N, 0.0000°E)
Time: 06:06:25
(UTC+00:00)

Tiros 1 - Pass Details

Date: 05 October 2020
Orbit: 630 x 663 km, 48.4° (Epoch: 28 October)

Event Time Altitude Azimuth Distance (km) Brightness Sun altitude
Rises 21:30:19 0° 301° (WNW) 2,981 - -55.2°
Reaches altitude 10° 21:32:56 10° 290° (WNW) 2,071 - -55.8°
Maximum altitude 21:37:02 28° 231° (SW) 1,229 - -56.9°
Drops below altitude 10° 21:41:08 10° 172° (S) 2,070 - -57.9°
Sets 21:43:45 0° 160° (SSE) 2,979 - -58.5°
